Location: Bald Rock
(37.3738°N, 119.9354°W)
Time: 12:08:46
(UTC+00:00)

CZ-2C R/B - Pass Details

Date: 08 September 2024
Orbit: 664 x 778 km, 98.4° (Epoch: 11 October)

Event Time Altitude Azimuth Distance (km) Brightness Sun altitude
Rises 12:41:52 0° 357° (N) 3,174 5.9 -11.5°
Reaches altitude 10° 12:44:40 10° 341° (NNW) 2,225 4.9 -10.9°
Maximum altitude 12:48:13 21° 294° (WNW) 1,595 3.7 -10.2°
Enters shadow 12:51:05 13° 253° (WSW) 1,999 4.0 -9.7°
